Home > Weather > Kiruna > Past weeks

Flag for Sweden Past Weather in Kiruna, Sweden — Yesterday and Last 2 Weeks

Now
59 °F

Broken clouds.


Feels Like: 58 °F
Forecast: 55 / 66 °F
Wind: 6 mph from Southwest

Location: Kiruna Airport

Current Time: Jun 29, 2016 at 10:03:13 PM

Latest Report: Jun 29, 2016 at 9:20 PM


Visibility: N/A

Pressure: 29.89 "Hg (28.06 "Hg at 532m altitude)

Humidity: 72%

Dew Point: 50 °F

Location of KirunaLocation

Past Weather in Kiruna — Graph

°F

Kiruna Temperature Yesterday

Maximum temperature yesterday: 66 °F (at 3:50 PM)
Minimum temperature yesterday: 52 °F (at 4:50 AM)
Average temperature yesterday: 58 °F

High & Low Weather Summary for the Past Weeks

 TemperatureHumidityPressure
High72 °F (Jun 27, 2:20 PM)100% (Jun 15, 4:50 AM)30.09 "Hg (Jun 15, 4:50 AM)
Low36 °F (Jun 20, 9:20 AM)30% (Jun 16, 1:50 PM)29.56 "Hg (Jun 19, 3:50 AM)
Average53 °F75%29.84 "Hg
* Reported Jun 14 9:20 PM — Jun 29 9:20 PM, Kiruna, Weather by CustomWeather, © 2016

Note: Actual official high and low records may vary slightly from our data, if they occured in-between our weather recording intervals... More about our weather records

Advertising

Kiruna Weather History for the Previous 24 Hours

Scroll right to see more
 ConditionsComfort  
Time TempWeatherWind HumidityBarometerVisibility
9:20 PM
Wed, Jun 29
59 °FBroken clouds.6 mph72%29.89 "HgN/A
8:20 PM59 °FScattered clouds.6 mph77%29.86 "HgN/A
7:50 PM61 °FPassing clouds.8 mph77%29.86 "HgN/A
7:20 PM61 °FLight rain. Scattered clouds.8 mph72%29.86 "HgN/A
6:50 PM64 °FPassing clouds.13 mph60%29.86 "HgN/A
6:20 PM66 °FScattered clouds.13 mph52%29.86 "HgN/A
5:50 PM68 °FScattered clouds.13 mph46%29.86 "HgN/A
5:20 PM68 °FScattered clouds.12 mph49%29.86 "HgN/A
4:50 PM68 °FScattered clouds.13 mph46%29.86 "HgN/A
4:20 PM68 °FScattered clouds.12 mph49%29.86 "HgN/A
3:50 PM68 °FScattered clouds.12 mph53%29.86 "HgN/A
3:20 PM68 °FScattered clouds.10 mph53%29.86 "HgN/A
2:50 PM68 °FScattered clouds.10 mph49%29.86 "HgN/A
2:20 PM68 °FScattered clouds.10 mph53%29.86 "HgN/A
1:50 PM68 °FScattered clouds.7 mph53%29.86 "HgN/A
1:20 PM66 °FScattered clouds.9 mph60%29.86 "HgN/A
12:50 PM64 °FPartly sunny.3 mph73%29.86 "HgN/A
12:20 PM64 °FPartly sunny.1 mph73%29.86 "HgN/A
11:50 AM61 °FScattered clouds.7 mph88%29.86 "HgN/A
11:20 AM61 °FLight rain. Scattered clouds.7 mph88%29.86 "HgN/A
10:20 AM61 °FPartly sunny.3 mph83%29.86 "HgN/A
9:50 AM59 °FPartly sunny.5 mph88%29.89 "HgN/A
9:20 AM59 °FPartly sunny.5 mph88%29.89 "HgN/A
8:50 AM57 °FPartly sunny.2 mph94%29.86 "HgN/A
8:20 AM55 °FMostly cloudy.2 mph100%29.89 "HgN/A
7:50 AM55 °FFog.2 mph94%29.89 "Hg3 mi
7:20 AM54 °FFog.2 mph100%29.86 "Hg4 mi
6:50 AM54 °FLow clouds.3 mph100%29.86 "Hg5 mi
6:20 AM54 °FLow clouds.3 mph100%29.89 "HgN/A
5:20 AM54 °FLow clouds.No wind94%29.86 "HgN/A
4:50 AM54 °FLow clouds.2 mph94%29.86 "HgN/A
4:20 AM54 °FLow clouds.3 mph94%29.86 "HgN/A
3:50 AM54 °FLow clouds.3 mph94%29.86 "HgN/A
3:20 AM54 °FLow clouds.5 mph94%29.86 "HgN/A
2:50 AM54 °FLow clouds.3 mph94%29.86 "HgN/A
2:20 AM54 °FLow clouds.5 mph94%29.86 "HgN/A
1:50 AM54 °FLow clouds.3 mph94%29.86 "HgN/A
1:20 AM52 °FLight rain. Broken clouds.5 mph100%29.86 "HgN/A
12:50 AM54 °FLight rain. Low clouds.3 mph94%29.86 "HgN/A
12:20 AM54 °FMore clouds than sun.3 mph94%29.86 "HgN/A
11:20 PM
Tue, Jun 28
54 °FRain. Partly sunny.5 mph100%29.83 "Hg2 mi
10:50 PM55 °FRain. Cloudy.3 mph94%29.83 "Hg4 mi
10:20 PM55 °FRain. Fog.No wind94%29.83 "Hg4 mi
Weather by CustomWeather, © 2016

See weather overviewHow to use our weather pages